www.pogodaiklimat.ru

Погода и климат >> Архив погоды >> Россия >> Сахалинская область >> Москальво


АРХИВ ПОГОДЫ в Москальво

Время (UTC), дата Ветер
(напр.,м/с)
 
Видим.   Явления Облачность Т
(С)
Тd
(С)
f
(%)
Тe
(С)
Тes
(С)
Комфортность P
(гПа)
Po
(гПа)
Тmin
(С)
Tmax
(С)
R
(мм)
R24
(мм)
S
(см)
21 15.04 ЮВ 7-9
{10}
20 км 9/1 300 м
[St Ac As]
-0.7 -0.7 100 -8 -8 1007.0 1006.2 -4.0 115
00 16.04 ЮВ 9-12
{14}
20 км 9/9 300 м
[St]
+1.7 +0.3 90 -6 -6 1006.4 1005.6
03 16.04 ЮВ 8-10
{13}
20 км 9/1 300 м
[St Cs]
+1.6 +0.5 92 -6 -4 1005.3 1004.5
06 16.04 ЮВ 10-12
{12}
20 км 9/0
[Cs]
+1.0 +0.4 96 -7 -7 1003.3 1002.5
09 16.04 ЮВ 10-13
{16}
20 км 10/10 300 м
[St]
+0.4 +0.4 100 -8 -8 1002.0 1001.2 +1.9
12 16.04 ЮВ 9-12
{15}
20 км 9/9 300 м
[St]
+0.2 +0.2 100 -8 -8 1001.6 1000.8
15 16.04 ЮВ 11-15
{15}
20 км 9/9 300 м
[St]
+0.5 +0.5 100 -8 -8 999.5 998.7
18 16.04 ЮВ 10-15
{17}
20 км 10/10 300 м
[St]
+0.8 +0.8 100 -7 -7 996.6 995.8
21 16.04 ЮВ 5-7
{15}
20 км 10/1 300 м
[St Ac As]
+0.9 +0.7 99 -5 -5 998.4 997.6 -0.1 113
00 17.04 Ю 2-3
{7}
20 км 9/0
[Ac As]
+2.6 +0.7 87 -1 +3 1001.1 1000.3
03 17.04 С 2-3
{4}
50 км 1/0
[Ac lent]
+3.2 -2.2 68 +1 +12 опасность
простуды
1003.1 1002.3
06 17.04 С 3-4
{6}
50 км 1/0
[Ac lent]
+1.9 -1.9 76 -2 +3 1005.5 1004.7
09 17.04 С 4-5
{6}
50 км 1/0
[Ac lent]
-1.3 -3.9 82 -7 -7 1007.8 1007.0 +4.7
12 17.04 ЮВ 2-4
{5}
20 км 9/0
[Cs]
-2.9 -6.2 78 -7 -7 1010.8 1010.0
15 17.04 ЮВ 3-3
{4}
20 км 9/0
[Cs]
-3.4 -6.3 80 -9 -9 1011.8 1010.9
18 17.04 ЮВ 4-4
{5}
20 км 10/0
[Ac As]
-1.4 -2.2 94 -7 -7 1012.2 1011.4
21 17.04 В 5-6
{7}
20 км 9/0
[Ac lent Cs]
-1.5 -3.9 84 -8 -7 1011.4 1010.6 -4.3 112
00 18.04 В 7-9
{10}
20 км 9/0
[Cs]
0.0 -2.1 86 -7 -5 1010.0 1009.1
03 18.04 ЮВ 10-13
{14}
20 км 10/10 300 м
[St]
-0.1 -0.9 94 -9 -9 1007.9 1007.1
09 18.04 ЮВ 9-11
{13}
20 км {снег} 10/10 300 м
[St]
-0.9 -0.9 100 -9 -9 1004.7 1004.0 +1.2 0.0
12 18.04 ЮВ 8-10
{13}
20 км {снег} 10/10 300 м
[St]
-1.0 -1.0 100 -9 -9 1005.4 1004.6
15 18.04 В 5-8
{10}
20 км 10/10 300 м
[St]
-1.0 -1.0 100 -8 -8 1005.3 1004.4
18 18.04 ЮВ 6-8
{9}
20 км 10/10 300 м
[St]
-1.8 -1.8 100 -9 -9 1005.6 1004.8
21 18.04 ЮВ 6-9
{11}
20 км 10/10 300 м
[St]
-0.9 -0.9 100 -8 -8 1005.5 1004.7 -1.8 111
00 19.04 ЮВ 8-10
{11}
20 км 10/10 300 м
[St]
+0.1 -0.0 99 -8 -8 1006.0 1005.2
03 19.04 ЮВ 9-13
{13}
20 км 9/9 300 м
[St]
+0.5 +0.1 97 -7 -7 1006.6 1005.8
06 19.04 ЮВ 6-9
{13}
20 км 9/9 300 м
[St]
+0.7 +0.3 97 -6 -6 1007.6 1006.8
09 19.04 ЮВ 8-9
{11}
4000 м дымка 10/10 300 м
[St]
-0.3 -0.3 100 -8 -8 1009.0 1008.3 +0.9
12 19.04 ЮВ 6-9
{11}
20 км 10/10 300 м
[St]
-0.5 -0.5 100 -8 -8 1010.5 1009.8
15 19.04 ЮВ 7-9
{11}
20 км 10/10 300 м
[St]
-0.6 -0.6 100 -8 -8 1011.4 1010.6
18 19.04 ЮВ 7-10
{11}
20 км 10/10 300 м
[St]
-0.6 -0.6 100 -8 -8 1011.7 1010.9
21 19.04 ЮВ 7-10
{11}
2000 м дымка 10/10 300 м
[St]
-0.4 -0.4 100 -8 -8 1012.7 1011.9 -0.6 109
00 20.04 ЮВ 7-10
{11}
20 км 10/10 300 м
[St]
+0.2 +0.2 100 -7 -7 1013.3 1012.5
03 20.04 ЮВ 8-11
{11}
20 км 10/10 300 м
[St]
+0.6 +0.3 98 -7 -7 1013.1 1012.4
06 20.04 ЮВ 6-8
{11}
20 км 10/0
[Ac As]
+0.6 +0.3 98 -6 -5 1013.5 1012.7
09 20.04 ЮВ 8-9
{12}
20 км 10/0
[Ac As]
-0.2 -0.2 100 -8 -8 1013.2 1012.4 +0.9
12 20.04 ЮВ 8-12
{11}
20 км 10/10 300 м
[St]
-0.8 -0.8 100 -9 -9 1014.0 1013.2
15 20.04 ЮВ 6-8
{12}
20 км 10/10 300 м
[St]
-0.9 -0.9 100 -8 -8 1013.8 1013.0
18 20.04 ЮВ 6-10
{9}
20 км 10/10 300 м
[St]
-1.3 -1.3 100 -9 -9 1012.3 1011.5
21 20.04 ЮВ 6-9
{11}
20 км 10/10 300 м
[St]
-0.8 -0.8 100 -8 -8 1011.3 1010.5 -1.3 107
00 21.04 ЮВ 5-8
{10}
20 км 10/0
[Ac As]
+0.6 +0.2 97 -6 -4 1010.0 1009.2
03 21.04 ЮВ 7-9
{9}
20 км 10/0
[Ac As]
+1.2 +0.4 94 -6 -5 1008.6 1007.8
06 21.04 ЮВ 6-8
{10}
20 км 9/0
[Ac As]
+1.0 +0.3 95 -6 -5 1007.6 1006.8
09 21.04 ЮВ 5-7
{9}
20 км 10/0
[Ac As]
+0.2 +0.1 99 -6 -6 1007.9 1007.1 +1.5
12 21.04 ЮВ 5-7
{7}
20 км 10/0
[Ac As]
-0.6 -0.6 100 -7 -7 1008.2 1007.4
15 21.04 ЮВ 3-5
{7}
20 км 10/0
[Ac As]
-0.5 -0.6 99 -6 -6 1007.7 1006.9
18 21.04 ЮВ 3-4
{5}
20 км 9/0
[Ac As]
-0.6 -0.7 99 -6 -6 1007.5 1006.7
21 21.04 ЮВ 4-4
{5}
20 км 10/0
[Ac As]
-0.7 -0.7 100 -7 -6 1008.0 1007.2 -1.1 105
03 22.04 СЗ 4-5
{5}
20 км 9/0
[Ac As]
+2.0 +0.1 87 -3 0 1009.1 1008.3
09 22.04 СЗ 5-7
{8}
2000 м снег 10/10 300 м
[Frnb Ns]
-0.5 -0.5 100 -7 -7 1012.0 1011.3 +2.6 0.0
15 22.04 СЗ 4-4
{7}
20 км 10/10 300 м
[St]
-1.5 -1.6 99 -8 -8 1014.5 1013.7

 

Местоположение метеостанции Москальво (Сахалинская область, Россия): широта 53.57 долгота 142.50 высота над уровнем моря 6 м.

В архиве по умолчанию представлена погода в Москальво за последнюю неделю. Архивные данные за месяц целиком и за предыдущие месяцы, начиная с января 2011 года, Вы можете получить, выбрав интересующий диапазон дат из раскрывающегося списка и нажав кнопку "Ввод!".


*Определитесь, кто Вы:
робот инопланетянин человек

Внимание! Время в таблицах - всемирное. Для получения местного времени необходимо прибавить поправку, которая равна 11 ч.

Смотрите также архив погоды в соседних городах и на ближайших метеорологических станциях:

Погода в Оха (Сахалинская область, Россия) (28 км)
Погода в Одопту (Сахалинская область, Россия) (50 км)
Погода в Байдукове (Хабаровский край, Россия) (79 км)
Погода в Ныврово (Сахалинская область, Россия) (85 км)
Погода в Николаевск-на-Амуре (Хабаровский край, Россия) (128 км)
Погода в Джаоре (Хабаровский край, Россия) (132 км)
Погода в Вале (Сахалинская область, Россия) (142 км)
Погода в Литке (Хабаровский край, Россия) (151 км)
Погода в Погибях (Сахалинская область, Россия) (162 км)
Погода в Ногликах (Сахалинская область, Россия) (188 км)

Пояснения к столбцам:

Ветер - указаны скорость ветра в м/с - средняя за 10 мин, порывы в срок и между сроками (в фигурных скобках) и направление, откуда дует ветер: С - северный, СВ - северо-восточный, В - восточный, ЮВ - юго-восточный, Ю - южный, ЮЗ - юго-западный, З - западный, СЗ - северо-западный.
Видимость - горизонтальная дальность видимости в метрах или километрах. При видимости от 1 до 10 км при отсутствии осадков обычно наблюдается дымка, при ухудшении видимости до 1 км и менее - туман. В сухую погоду видимость может ухудшаться дымом, пылью или мглою.
Явления - указаны атмосферные явления, наблюдавшиеся в срок или в последний час перед сроком; фигурными скобками обозначены явления, наблюдавшиеся между сроками (за 1-3 часа до срока); квадратными скобками обозначены град или гололедные отложения с указанием их диаметра в мм.
Облачность - указаны через наклонную черту общая и нижняя облачность в баллах и высота нижней границы облаков в метрах; квадратными скобками обозначены формы облаков: Ci - перистые, Cs - перисто-слоистые, Cc - перисто-кучевые, Ac - высококучевые, As - высокослоистые, Sc - слоисто-кучевые, Ns - слоисто-дождевые, Cu - кучевые, Cb - кучево-дождевые. Подробнее классификацию облаков см. в Атласе облаков (PDF).
T - Температура воздуха - температура, измеренная на высоте 2 м над землей.
Td - Температура точки росы - температура, при понижении до которой содержащийся в воздухе водяной пар достигнет насыщения.
f - Относительная влажность воздуха - влажноcть воздуха, измеренная на высоте 2 м над землей.
Te - Эффективная температура - температура, которую ощущает одетый по сезону человек в тени. Характеристика душности погоды. При расчете учитывается влияние влажности воздуха и скорости ветра на теплоощущения человека.
Tes - Эффективная температура на солнце - температура, которую ощущает человек, с поправкой на солнечный нагрев. Характеристика знойности погоды. Зависит от высоты солнца над горизонтом, облачности и скорости ветра. Ночью, в пасмурную погоду, а также при ветре 12 м/с и более поправка равна нулю.
P - Атмосферное давление - приведенное к уровню моря атмосферное давление.
Po - Атмосферное давление - измеренное на уровне метеостанции атмосферное давление.
Tmin - Минимальная температура - минимум температуры воздуха на высоте 2 м над землей.
Tmax - Максимальная температура - максимум температуры воздуха на высоте 2 м над землей.
R - Количество осадков - Количество выпавших осадков за период времени, мм. При наведении курсора мыши на число - период времени, за который выпало указанное количество осадков.
R24 - Количество осадков - Количество выпавших осадков за 24 часа, мм.
S - Снежный покров - Высота снежного покрова, см. При наведении курсора мыши на число - состояние снежного покрова и степень покрытия местности в баллах.